Flag Weather past 2 weeks in Hofheim am Taunus, Hesse, Germany

Now
40 °F

Overcast.


Feels Like: 35 °F
Forecast: 36 / 42 °F
Wind: 8 mph from East

Location: Wiesbaden Airport

Current Time: Nov 27, 2014 at 4:29:50 AM

Latest Report: Nov 27, 2014 at 3:58 AM


Visibility: N/A

Pressure: 29.92 "Hg

Humidity: 82%

Dew point: 35 °F

Location of Hofheim am TaunusLocation

Historic Weather in Hofheim am Taunus — Graph

°F

Hofheim am Taunus temperature yesterday

Maximum temperature yesterday: 41 °F (at 8:58 PM)
Minimum temperature yesterday: 37 °F (at 5:58 AM)
Average temperature yesterday: 40 °F

Past Weeks' High & Low Weather Summary

 TemperatureHumidityPressure
High54 °F (Nov 14, 1:58 PM)100% (Nov 12, 2:58 AM)30.36 "Hg (Nov 12, 2:58 AM)
Low34 °F (Nov 25, 1:58 AM)71% (Nov 21, 1:58 PM)29.53 "Hg (Nov 16, 5:59 AM)
Average45 °F93%29.98 "Hg
* Reported Nov 12 2:58 AM — Nov 27 2:58 AM, Hofheim am Taunus, Weather by CustomWeather, © 2014

Note: Actual official high and low records may vary slightly from our data, if they occured in-between our weather recording intervals... More about our weather records

Advertising

Hofheim am Taunus weather history for previous 24 hours

 ConditionsComfort  
Time TempWeatherWind HumidityBarometerVisibility
2:58 AM
Nov 27
41 °FMostly cloudy.8 mph81%29.93 "HgN/A
1:58 AM41 °FOvercast.8 mph81%29.94 "HgN/A
12:58 AM41 °FMostly cloudy.8 mph81%29.96 "HgN/A
11:58 PM
Nov 26
41 °FOvercast.8 mph81%29.97 "HgN/A
10:58 PM41 °FMostly cloudy.9 mph81%29.98 "HgN/A
9:58 PM41 °FOvercast.8 mph80%29.99 "HgN/A
8:58 PM41 °FMostly cloudy.8 mph81%30.00 "HgN/A
7:58 PM41 °FOvercast.8 mph81%30.01 "HgN/A
6:58 PM41 °FPassing clouds.9 mph82%30.01 "HgN/A
5:58 PM41 °FOvercast.9 mph81%30.01 "HgN/A
4:58 PM41 °FOvercast.9 mph80%30.01 "HgN/A
3:58 PM41 °FOvercast.9 mph82%30.02 "HgN/A
2:58 PM41 °FOvercast.9 mph81%30.03 "HgN/A
1:58 PM41 °FOvercast.10 mph82%30.04 "HgN/A
12:59 PM41 °FLight rain. Overcast.13 mph81%30.03 "HgN/A
12:58 PM41 °FOvercast.13 mph82%30.05 "HgN/A
11:58 AM41 °FOvercast.10 mph81%30.07 "HgN/A
10:58 AM39 °FOvercast.10 mph86%30.08 "HgN/A
9:58 AM37 °FLight rain. Overcast.14 mph87%30.09 "HgN/A
8:58 AM38 °FOvercast.13 mph82%30.09 "HgN/A
7:58 AM38 °FOvercast.14 mph84%30.09 "HgN/A
6:58 AM37 °FOvercast.14 mph87%30.09 "HgN/A
5:58 AM37 °FOvercast.12 mph87%30.10 "HgN/A
4:58 AM38 °FOvercast.13 mph83%30.11 "HgN/A
Weather by CustomWeather, © 2014

See weather overviewHow to use our weather pages